EW3693 Weather Reports


time (UTC)temp
F
wind
direction
speed
knots
gust
knots
rain 1hr
in
rain 24hr
in
rain mn
in
humidity
%
barometer
mb
20260503014027 54 0.0 0.0 0.00 0.00 0.00 86 1014.2
20260503013026 54 0.0 0.0 0.00 0.00 0.00 87 1014.1
20260503012027 54 0.0 0.0 0.00 0.00 0.00 87 1014.1
20260503011026 53 0.0 0.0 0.00 0.00 0.00 87 1014.3
20260503010026 53 0.0 0.0 0.00 0.00 0.00 87 1014.3
20260503005026 53 0.0 0.0 0.00 0.00 0.00 86 1014.5
20260503004026 53 315 3.5 7.0 0.00 0.00 0.00 86 1014.7
20260503003026 53 0 6.1 12.2 0.00 0.00 0.00 85 1014.8
20260503002026 53 0.0 0.0 0.00 0.00 0.00 84 1014.2
20260503001046 53 0.0 0.0 0.00 0.00 0.00 84 1014.2
20260503000026 53 0.0 0.0 0.00 0.00 0.00 83 1014.1
20260502235026 54 0.0 0.0 0.00 0.00 0.00 83 1014.2
20260502234026 54 0.0 0.0 0.00 0.00 0.00 82 1014.2
20260502233026 55 0.0 0.0 0.00 0.00 0.00 81 1014.3
20260502232026 55 0.0 0.0 0.00 0.00 0.00 80 1014.3
20260502231026 56 0.0 0.0 0.00 0.00 0.00 80 1014.4
20260502230026 56 0.0 3.5 0.00 0.00 0.00 79 1014.5
20260502225026 57 338 2.6 3.5 0.00 0.00 0.00 79 1014.6
20260502224026 57 0.0 0.0 0.00 0.00 0.00 79 1014.6
20260502223026 58 0.0 0.0 0.00 0.00 0.00 77 1014.6
20260502222026 58 0.0 0.0 0.00 0.00 0.00 77 1014.7
20260502221026 58 293 2.6 5.2 0.00 0.00 0.00 77 1014.7
20260502220026 58 293 3.5 5.2 0.00 0.00 0.00 76 1014.6
20260502215026 58 0 3.5 5.2 0.00 0.00 0.00 75 1014.6
20260502214026 59 293 0.9 3.5 0.00 0.00 0.00 74 1014.7
20260502213026 59 0 2.6 3.5 0.00 0.00 0.00 73 1014.7
20260502212046 60 0 3.5 7.8 0.00 0.00 0.00 70 1014.7
20260502211026 60 0.0 0.0 0.00 0.00 0.00 67 1014.6
20260502210046 61 0.0 0.0 0.00 0.00 0.00 67 1014.7
20260502205026 61 0.0 0.0 0.00 0.00 0.00 66 1014.6
20260502204026 61 0.0 0.0 0.00 0.00 0.00 66 1014.7
20260502203026 62 0.0 0.0 0.00 0.00 0.00 66 1014.7
20260502202026 62 0.0 0.0 0.00 0.00 0.00 64 1014.8
20260502201026 63 0.0 0.0 0.00 0.00 0.00 63 1014.8
20260502200026 64 0.0 0.0 0.00 0.00 0.00 61 1014.7
20260502195026 64 0.0 0.0 0.00 0.00 0.00 60 1014.7
20260502194025 65 0.0 0.0 0.00 0.00 0.00 60 1014.8
20260502193026 66 0.0 0.0 0.00 0.00 0.00 59 1014.7
20260502192026 67 0.0 0.0 0.00 0.00 0.00 56 1014.7
20260502191026 67 0.0 0.0 0.00 0.00 0.00 56 1014.8
20260502190026 67 0.0 0.9 0.00 0.00 0.00 57 1014.7
20260502185025 66 0.0 0.9 0.00 0.00 0.00 60 1014.7
20260502184026 67 225 1.7 3.5 0.00 0.00 0.00 62 1014.7
20260502182046 70 0 3.5 6.1 0.00 0.00 0.00 50 1014.7
20260502181025 69 0 3.5 5.2 0.00 0.00 0.00 56 1014.7
20260502164026 74 0 3.5 8.7 0.00 0.00 0.00 44 1014.9
20260502163025 75 0 3.5 7.0 0.00 0.00 0.00 46 1015.0
20260502162026 76 0 5.2 9.6 0.00 0.00 0.00 42 1015.1
20260502161024 77 0 7.0 12.2 0.00 0.00 0.00 39 1015.1
20260502152045 78 0 4.3 8.7 0.00 0.00 0.00 40 1015.6
20260502151026 78 0 7.0 12.2 0.00 0.00 0.00 39 1015.7
20260502123029 80 0 7.0 13.9 0.00 0.00 0.00 38 1017.9
20260502122028 80 0 4.3 8.7 0.00 0.00 0.00 40 1017.9
20260502121030 79 0 7.0 13.0 0.00 0.00 0.00 40 1018.1
20260502115028 79 0 7.0 11.3 0.00 0.00 0.00 41 1018.5
20260502114028 79 0 6.1 13.0 0.00 0.00 0.00 41 1018.7
20260502113028 78 0 7.8 15.6 0.00 0.00 0.00 40 1018.8
20260502112028 78 0 8.7 15.6 0.00 0.00 0.00 43 1019.0
20260502111028 79 0 6.1 11.3 0.00 0.00 0.00 42 1019.0
20260502110029 78 0 7.0 15.6 0.00 0.00 0.00 43 1019.3
20260502105029 78 0 7.8 13.9 0.00 0.00 0.00 40 1019.2
20260502104029 78 0 7.0 13.9 0.00 0.00 0.00 41 1019.4
20260502103028 77 0 5.2 9.6 0.00 0.00 0.00 45 1019.5
20260502102028 76 0 6.1 11.3 0.00 0.00 0.00 46 1019.6
20260502101028 77 0 4.3 7.8 0.00 0.00 0.00 47 1019.7
20260502091028 74 0 7.8 12.2 0.00 0.00 0.00 48 1020.4
20260502071027 66 0 1.7 7.0 0.00 0.00 0.00 65 1021.3
20260502070027 65 0 1.7 5.2 0.00 0.00 0.00 66 1021.4
20260502065029 64 0 1.7 4.3 0.00 0.00 0.00 66 1021.4
20260502064047 63 0 1.7 5.2 0.00 0.00 0.00 66 1021.5
20260502063027 62 0 2.6 5.2 0.00 0.00 0.00 67 1021.6
20260502062048 61 0 1.7 4.3 0.00 0.00 0.00 69 1021.7
20260502061028 60 0 0.9 4.3 0.00 0.00 0.00 70 1021.7
20260502060048 58 0.0 0.0 0.00 0.00 0.00 72 1021.8
20260502055028 57 0.0 0.0 0.00 0.00 0.00 75 1021.7
20260502054028 55 0.0 0.9 0.00 0.00 0.00 76 1021.8
20260502053027 54 0.0 0.0 0.00 0.00 0.00 76 1021.8
20260502052027 53 0.0 0.0 0.00 0.00 0.00 77 1021.9
20260502051027 52 0.0 0.0 0.00 0.00 0.00 78 1021.9
20260502050027 50 0.0 0.0 0.00 0.00 0.00 80 1021.9
20260502045024 49 0.0 0.0 0.00 0.00 0.00 82 1022.0
20260502044047 48 0.0 0.0 0.00 0.00 0.00 81 1022.0
20260502043027 47 0.0 0.0 0.00 0.00 0.00 81 1022.1
20260502042027 47 0.0 0.0 0.00 0.00 0.00 80 1022.0
20260502041047 47 0.0 0.0 0.00 0.00 0.00 80 1022.1
20260502040027 47 0.0 0.0 0.00 0.00 0.00 80 1022.2
20260502035027 47 0.0 0.0 0.00 0.00 0.00 80 1022.3
20260502034027 47 0.0 0.0 0.00 0.00 0.00 80 1022.3
20260502033027 47 0.0 0.0 0.00 0.00 0.00 79 1022.3
20260502032027 47 0.0 0.0 0.00 0.00 0.00 79 1022.5
20260502031027 47 0.0 0.0 0.00 0.00 0.00 79 1022.7
20260502030027 47 0.0 0.0 0.00 0.00 0.00 79 1022.8
20260502025027 47 0.0 0.0 0.00 0.00 0.00 79 1022.8
20260502024027 47 0.0 0.0 0.00 0.00 0.00 78 1022.8
20260502023027 47 0.0 0.0 0.00 0.00 0.00 78 1022.9
20260502022027 47 0.0 0.0 0.00 0.00 0.00 77 1023.0
20260502021027 47 0.0 0.0 0.00 0.00 0.00 76 1023.1
20260502020027 47 0.0 0.0 0.00 0.00 0.00 74 1023.2
20260502015047 48 0.0 0.0 0.00 0.00 0.00 73 1023.3